| time (UTC) | temp F | wind direction | speed knots | gust knots | rain 1hr in | rain 24hr in | rain mn in | humidity % | barometer mb |
| 20260508082043 | 65 | 83 | 6.1 | 11.3 | 0.00 | 0.00 | 0.00 | 82 | 1015.3 |
| 20260508081543 | 65 | 84 | 6.1 | 8.7 | 0.00 | 0.00 | 0.00 | 82 | 1015.3 |
| 20260508081043 | 65 | 101 | 3.5 | 10.4 | 0.00 | 0.00 | 0.00 | 83 | 1015.4 |
| 20260508080544 | 65 | 67 | 5.2 | 10.4 | 0.00 | 0.00 | 0.00 | 83 | 1015.3 |
| 20260508080043 | 65 | 117 | 4.3 | 7.8 | 0.00 | 0.00 | 0.00 | 84 | 1015.4 |
| 20260508075544 | 65 | 118 | 2.6 | 5.2 | 0.00 | 0.00 | 0.00 | 86 | 1015.4 |
| 20260508075043 | 64 | 91 | 5.2 | 7.0 | 0.00 | 0.00 | 0.00 | 86 | 1015.4 |
| 20260508074543 | 64 | 93 | 7.0 | 7.8 | 0.00 | 0.00 | 0.00 | 85 | 1015.4 |
| 20260508074044 | 64 | 76 | 3.5 | 6.1 | 0.00 | 0.00 | 0.00 | 86 | 1015.4 |
| 20260508073543 | 64 | 106 | 2.6 | 6.1 | 0.00 | 0.00 | 0.00 | 86 | 1015.4 |
| 20260508073044 | 64 | 114 | 4.3 | 6.1 | 0.00 | 0.00 | 0.00 | 86 | 1015.4 |
| 20260508072545 | 63 | 121 | 3.5 | 5.2 | 0.00 | 0.00 | 0.00 | 87 | 1015.4 |
| 20260508072043 | 63 | 120 | 3.5 | 6.1 | 0.00 | 0.00 | 0.00 | 87 | 1015.4 |
| 20260508071544 | 63 | 124 | 4.3 | 7.0 | 0.00 | 0.00 | 0.00 | 86 | 1015.3 |
| 20260508071043 | 64 | 106 | 2.6 | 7.8 | 0.00 | 0.00 | 0.00 | 87 | 1015.4 |
| 20260508065543 | 63 | 124 | 3.5 | 7.0 | 0.00 | 0.00 | 0.00 | 87 | 1015.3 |
| 20260508065046 | 63 | 80 | 3.5 | 7.0 | 0.00 | 0.00 | 0.00 | 88 | 1015.3 |
| 20260508064544 | 62 | 71 | 2.6 | 6.1 | 0.00 | 0.00 | 0.00 | 88 | 1015.3 |
| 20260508064043 | 61 | 89 | 4.3 | 7.8 | 0.00 | 0.00 | 0.00 | 88 | 1015.2 |
| 20260508063543 | 61 | 92 | 4.3 | 7.0 | 0.00 | 0.00 | 0.00 | 89 | 1015.3 |
| 20260508063043 | 61 | 102 | 5.2 | 10.4 | 0.00 | 0.00 | 0.00 | 89 | 1015.2 |
| 20260508062043 | 61 | 81 | 4.3 | 8.7 | 0.00 | 0.00 | 0.00 | 89 | 1015.1 |
| 20260508061545 | 61 | 106 | 7.0 | 8.7 | 0.00 | 0.00 | 0.00 | 88 | 1015.0 |
| 20260508061048 | 61 | 119 | 6.1 | 10.4 | 0.00 | 0.00 | 0.00 | 88 | 1015.1 |
| 20260508060543 | 61 | 109 | 5.2 | 8.7 | 0.00 | 0.00 | 0.00 | 88 | 1015.0 |
| 20260508055043 | 60 | 118 | 3.5 | 6.1 | 0.00 | 0.00 | 0.00 | 88 | 1014.8 |
| 20260508054543 | 60 | 106 | 1.7 | 4.3 | 0.00 | 0.00 | 0.00 | 88 | 1014.8 |
| 20260508053543 | 59 | 101 | 2.6 | 6.1 | 0.00 | 0.00 | 0.00 | 88 | 1014.7 |
| 20260508053043 | 59 | 96 | 2.6 | 6.1 | 0.00 | 0.00 | 0.00 | 88 | 1014.5 |
| 20260508051043 | 59 | 91 | 3.5 | 6.1 | 0.00 | 0.00 | 0.00 | 88 | 1014.2 |
| 20260508050550 | 59 | 86 | 7.8 | 11.3 | 0.00 | 0.00 | 0.00 | 89 | 1014.2 |
| 20260508050042 | 58 | 73 | 5.2 | 8.7 | 0.00 | 0.00 | 0.00 | 90 | 1014.1 |
| 20260508045543 | 58 | 71 | 4.3 | 8.7 | 0.00 | 0.00 | 0.00 | 90 | 1014.1 |
| 20260508045043 | 58 | 82 | 6.1 | 11.3 | 0.00 | 0.00 | 0.00 | 91 | 1014.1 |
| 20260508044544 | 58 | 67 | 4.3 | 10.4 | 0.00 | 0.00 | 0.00 | 91 | 1014.0 |
| 20260508044043 | 57 | 68 | 4.3 | 7.8 | 0.00 | 0.00 | 0.00 | 91 | 1014.0 |
| 20260508043043 | 57 | 66 | 2.6 | 6.1 | 0.00 | 0.00 | 0.00 | 91 | 1013.9 |
| 20260508042543 | 57 | 49 | 2.6 | 6.1 | 0.00 | 0.00 | 0.00 | 90 | 1013.8 |
| 20260508042042 | 57 | 56 | 2.6 | 5.2 | 0.00 | 0.00 | 0.00 | 90 | 1013.8 |
| 20260508041543 | 57 | 67 | 3.5 | 7.0 | 0.00 | 0.00 | 0.00 | 90 | 1013.8 |
| 20260508040042 | 57 | 65 | 2.6 | 5.2 | 0.00 | 0.00 | 0.00 | 90 | 1013.7 |
| 20260508035542 | 57 | 70 | 5.2 | 8.7 | 0.00 | 0.00 | 0.00 | 90 | 1013.7 |
| 20260508035044 | 57 | 53 | 5.2 | 7.0 | 0.00 | 0.00 | 0.00 | 90 | 1013.6 |
| 20260508034542 | 57 | 52 | 5.2 | 8.7 | 0.00 | 0.00 | 0.00 | 90 | 1013.6 |
| 20260508033544 | 57 | 36 | 4.3 | 7.8 | 0.00 | 0.00 | 0.00 | 90 | 1013.6 |
| 20260508033043 | 57 | 51 | 5.2 | 7.8 | 0.00 | 0.00 | 0.00 | 90 | 1013.6 |
| 20260508032042 | 57 | 64 | 6.1 | 7.8 | 0.00 | 0.00 | 0.00 | 90 | 1013.6 |
| 20260508031542 | 57 | 69 | 4.3 | 7.8 | 0.00 | 0.00 | 0.00 | 90 | 1013.7 |
| 20260508031043 | 57 | 69 | 4.3 | 7.0 | 0.00 | 0.00 | 0.00 | 90 | 1013.7 |
| 20260508030543 | 57 | 67 | 4.3 | 7.8 | 0.00 | 0.00 | 0.00 | 90 | 1013.6 |
| 20260508030042 | 58 | 68 | 4.3 | 8.7 | 0.00 | 0.00 | 0.00 | 90 | 1013.5 |
| 20260508025543 | 58 | 71 | 3.5 | 8.7 | 0.00 | 0.00 | 0.00 | 90 | 1013.6 |
| 20260508025042 | 57 | 82 | 4.3 | 7.8 | 0.00 | 0.00 | 0.00 | 90 | 1013.6 |
| 20260508024558 | 58 | 59 | 4.3 | 6.1 | 0.00 | 0.00 | 0.00 | 90 | 1013.7 |
| 20260508024042 | 58 | 67 | 5.2 | 8.7 | 0.00 | 0.00 | 0.00 | 90 | 1013.6 |
| 20260508023542 | 58 | 67 | 5.2 | 7.8 | 0.00 | 0.00 | 0.00 | 91 | 1013.7 |
| 20260508023042 | 58 | 75 | 4.3 | 7.8 | 0.00 | 0.00 | 0.00 | 91 | 1013.7 |
| 20260508022542 | 58 | 78 | 5.2 | 8.7 | 0.00 | 0.00 | 0.00 | 91 | 1013.7 |
| 20260508022042 | 58 | 72 | 2.6 | 4.3 | 0.00 | 0.00 | 0.00 | 91 | 1013.6 |
| 20260508021542 | 58 | 58 | 3.5 | 5.2 | 0.00 | 0.00 | 0.00 | 90 | 1013.7 |
| 20260508021044 | 58 | 65 | 3.5 | 7.8 | 0.00 | 0.00 | 0.00 | 90 | 1013.8 |
| 20260508020044 | 58 | 75 | 2.6 | 7.0 | 0.00 | 0.00 | 0.00 | 90 | 1013.9 |
| 20260508015057 | 58 | 68 | 4.3 | 8.7 | 0.00 | 0.00 | 0.00 | 90 | 1013.9 |
| 20260508014542 | 58 | 64 | 4.3 | 6.1 | 0.00 | 0.00 | 0.00 | 90 | 1013.9 |
| 20260508014042 | 58 | 75 | 7.8 | 11.3 | 0.00 | 0.00 | 0.00 | 90 | 1013.8 |
| 20260508013542 | 58 | 67 | 5.2 | 7.8 | 0.00 | 0.00 | 0.00 | 90 | 1013.8 |
| 20260508013042 | 58 | 68 | 6.1 | 10.4 | 0.00 | 0.00 | 0.00 | 90 | 1013.8 |
| 20260508012557 | 58 | 70 | 7.0 | 10.4 | 0.00 | 0.00 | 0.00 | 90 | 1013.8 |
| 20260508012042 | 58 | 51 | 4.3 | 10.4 | 0.00 | 0.00 | 0.00 | 90 | 1013.7 |
| 20260508011542 | 58 | 61 | 5.2 | 7.8 | 0.00 | 0.00 | 0.00 | 90 | 1013.8 |
| 20260508011042 | 58 | 76 | 5.2 | 7.0 | 0.00 | 0.00 | 0.00 | 90 | 1013.8 |
| 20260508010542 | 58 | 70 | 6.1 | 7.8 | 0.00 | 0.00 | 0.00 | 90 | 1013.7 |
| 20260508010042 | 58 | 68 | 6.1 | 7.8 | 0.00 | 0.00 | 0.00 | 90 | 1013.7 |
| 20260508005542 | 58 | 71 | 5.2 | 8.7 | 0.00 | 0.00 | 0.00 | 90 | 1013.7 |
| 20260508005050 | 58 | 69 | 4.3 | 6.1 | 0.00 | 0.00 | 0.00 | 89 | 1013.7 |
| 20260508004542 | 59 | 64 | 4.3 | 8.7 | 0.00 | 0.00 | 0.00 | 89 | 1013.7 |
| 20260508004043 | 58 | 66 | 4.3 | 7.8 | 0.00 | 0.00 | 0.00 | 89 | 1013.7 |
| 20260508003542 | 59 | 90 | 3.5 | 6.1 | 0.00 | 0.00 | 0.00 | 89 | 1013.8 |
| 20260508003042 | 59 | 75 | 2.6 | 5.2 | 0.00 | 0.00 | 0.00 | 89 | 1013.8 |
| 20260508002542 | 59 | 64 | 3.5 | 6.1 | 0.00 | 0.00 | 0.00 | 89 | 1013.8 |
| 20260508002043 | 58 | 75 | 5.2 | 7.8 | 0.00 | 0.00 | 0.00 | 90 | 1013.9 |
| 20260508001542 | 58 | 70 | 3.5 | 7.0 | 0.00 | 0.00 | 0.00 | 89 | 1013.8 |
| 20260508001043 | 58 | 63 | 4.3 | 7.8 | 0.00 | 0.00 | 0.00 | 89 | 1013.8 |
| 20260508000542 | 59 | 68 | 4.3 | 6.1 | 0.00 | 0.00 | 0.00 | 89 | 1013.8 |
| 20260508000044 | 59 | 65 | 4.3 | 7.0 | 0.00 | 0.00 | 0.00 | 89 | 1013.8 |
| 20260507235542 | 59 | 68 | 4.3 | 7.0 | 0.00 | 0.00 | 0.00 | 89 | 1013.8 |
| 20260507235042 | 59 | 73 | 3.5 | 7.0 | 0.00 | 0.00 | 0.00 | 89 | 1013.8 |
| 20260507234542 | 59 | 79 | 3.5 | 6.1 | 0.00 | 0.00 | 0.00 | 89 | 1013.8 |
| 20260507234042 | 59 | 60 | 4.3 | 6.1 | 0.00 | 0.00 | 0.00 | 88 | 1013.9 |
| 20260507233542 | 59 | 68 | 4.3 | 6.1 | 0.00 | 0.00 | 0.00 | 88 | 1014.0 |
| 20260507232542 | 59 | 74 | 4.3 | 6.1 | 0.00 | 0.00 | 0.00 | 88 | 1013.9 |
| 20260507232042 | 59 | 70 | 5.2 | 6.1 | 0.00 | 0.00 | 0.00 | 88 | 1013.9 |
| 20260507231542 | 60 | 78 | 4.3 | 6.1 | 0.00 | 0.00 | 0.00 | 87 | 1013.9 |
| 20260507231043 | 60 | 66 | 4.3 | 6.1 | 0.00 | 0.00 | 0.00 | 87 | 1013.9 |
| 20260507230542 | 60 | 70 | 3.5 | 7.0 | 0.00 | 0.00 | 0.00 | 87 | 1013.9 |
| 20260507230042 | 60 | 73 | 2.6 | 6.1 | 0.00 | 0.00 | 0.00 | 86 | 1013.9 |
| 20260507225542 | 60 | 50 | 4.3 | 10.4 | 0.00 | 0.00 | 0.00 | 86 | 1013.7 |
| 20260507225042 | 61 | 58 | 6.1 | 8.7 | 0.00 | 0.00 | 0.00 | 86 | 1013.8 |
| 20260507224542 | 61 | 64 | 6.1 | 10.4 | 0.00 | 0.00 | 0.00 | 85 | 1013.9 |
| 20260507224042 | 61 | 69 | 6.1 | 10.4 | 0.00 | 0.00 | 0.00 | 85 | 1013.9 |
| 20260507223558 | 61 | 72 | 5.2 | 10.4 | 0.00 | 0.00 | 0.00 | 85 | 1013.9 |
| 20260507223041 | 61 | 85 | 5.2 | 7.8 | 0.00 | 0.00 | 0.00 | 85 | 1013.8 |
| 20260507222542 | 61 | 82 | 5.2 | 12.2 | 0.00 | 0.00 | 0.00 | 85 | 1013.7 |
| 20260507221042 | 61 | 66 | 5.2 | 10.4 | 0.00 | 0.00 | 0.00 | 84 | 1013.5 |
| 20260507215542 | 62 | 71 | 4.3 | 7.0 | 0.00 | 0.00 | 0.00 | 81 | 1013.6 |
| 20260507215041 | 62 | 69 | 4.3 | 7.0 | 0.00 | 0.00 | 0.00 | 80 | 1013.6 |
| 20260507214542 | 62 | 67 | 4.3 | 6.1 | 0.00 | 0.00 | 0.00 | 79 | 1013.6 |
| 20260507214042 | 62 | 65 | 5.2 | 7.0 | 0.00 | 0.00 | 0.00 | 78 | 1013.6 |
| 20260507213542 | 62 | 67 | 4.3 | 7.0 | 0.00 | 0.00 | 0.00 | 78 | 1013.5 |
| 20260507213047 | 63 | 82 | 2.6 | 6.1 | 0.00 | 0.00 | 0.00 | 78 | 1013.4 |
| 20260507212541 | 63 | 94 | 3.5 | 7.0 | 0.00 | 0.00 | 0.00 | 79 | 1013.4 |
| 20260507212042 | 63 | 73 | 4.3 | 6.1 | 0.00 | 0.00 | 0.00 | 79 | 1013.4 |
| 20260507211543 | 63 | 69 | 2.6 | 4.3 | 0.00 | 0.00 | 0.00 | 79 | 1013.4 |
| 20260507211041 | 62 | 100 | 3.5 | 6.1 | 0.00 | 0.00 | 0.00 | 80 | 1013.3 |
| 20260507210041 | 62 | 62 | 4.3 | 7.8 | 0.00 | 0.00 | 0.00 | 80 | 1013.3 |
| 20260507205541 | 62 | 69 | 2.6 | 5.2 | 0.00 | 0.00 | 0.00 | 80 | 1013.3 |
| 20260507205041 | 62 | 83 | 1.7 | 2.6 | 0.00 | 0.00 | 0.00 | 80 | 1013.2 |
| 20260507204041 | 62 | 107 | 3.5 | 6.1 | 0.00 | 0.00 | 0.00 | 80 | 1013.1 |
| 20260507203042 | 61 | 106 | 0.0 | 0.9 | 0.00 | 0.00 | 0.00 | 80 | 1013.0 |
| 20260507202541 | 61 | 106 | 0.0 | 0.9 | 0.00 | 0.00 | 0.00 | 80 | 1013.0 |
| 20260507202041 | 61 | 106 | 0.0 | 0.9 | 0.00 | 0.00 | 0.00 | 79 | 1012.9 |
| 20260507201556 | 61 | 106 | 0.0 | 1.7 | 0.00 | 0.00 | 0.00 | 79 | 1012.9 |
| 20260507201041 | 62 | 106 | 2.6 | 2.6 | 0.00 | 0.00 | 0.00 | 77 | 1012.9 |
| 20260507200541 | 62 | 73 | 1.7 | 2.6 | 0.00 | 0.00 | 0.00 | 78 | 1012.8 |
| 20260507200041 | 62 | 15 | 0.0 | 0.0 | 0.00 | 0.00 | 0.00 | 77 | 1012.7 |
| 20260507195541 | 62 | 15 | 0.0 | 0.9 | 0.00 | 0.00 | 0.00 | 77 | 1012.7 |
| 20260507194545 | 63 | 15 | 1.7 | 1.7 | 0.00 | 0.00 | 0.00 | 76 | 1012.6 |
| 20260507194041 | 63 | 15 | 1.7 | 1.7 | 0.00 | 0.00 | 0.00 | 75 | 1012.5 |
| 20260507193041 | 63 | 15 | 0.9 | 2.6 | 0.00 | 0.00 | 0.00 | 75 | 1012.5 |
| 20260507192541 | 64 | 15 | 0.9 | 1.7 | 0.00 | 0.00 | 0.00 | 74 | 1012.4 |
| 20260507192044 | 64 | 15 | 0.0 | 0.0 | 0.00 | 0.00 | 0.00 | 74 | 1012.3 |
| 20260507191544 | 64 | 15 | 0.0 | 0.0 | 0.00 | 0.00 | 0.00 | 74 | 1012.3 |
| 20260507191046 | 65 | 15 | 0.0 | 0.0 | 0.00 | 0.00 | 0.00 | 73 | 1012.2 |
| 20260507190541 | 65 | 15 | 0.0 | 0.9 | 0.00 | 0.00 | 0.00 | 73 | 1012.2 |
| 20260507190041 | 65 | 15 | 0.9 | 1.7 | 0.00 | 0.00 | 0.00 | 72 | 1012.1 |
| 20260507185541 | 65 | 9 | 0.9 | 1.7 | 0.00 | 0.00 | 0.00 | 73 | 1012.2 |
| 20260507185041 | 65 | 9 | 0.0 | 0.9 | 0.00 | 0.00 | 0.00 | 73 | 1012.2 |
| 20260507184541 | 65 | 9 | 0.0 | 0.0 | 0.00 | 0.00 | 0.00 | 71 | 1012.1 |
| 20260507184040 | 66 | 9 | 0.0 | 0.0 | 0.00 | 0.00 | 0.00 | 71 | 1012.1 |
| 20260507183541 | 66 | 20 | 0.0 | 0.0 | 0.00 | 0.00 | 0.00 | 69 | 1012.0 |
| 20260507183042 | 67 | 20 | 0.0 | 0.0 | 0.00 | 0.00 | 0.00 | 69 | 1011.9 |
| 20260507182541 | 67 | 20 | 0.0 | 0.0 | 0.00 | 0.00 | 0.00 | 67 | 1011.8 |
| 20260507182041 | 68 | 20 | 0.0 | 0.0 | 0.00 | 0.00 | 0.00 | 67 | 1011.7 |
| 20260507181541 | 68 | 20 | 0.0 | 0.0 | 0.00 | 0.00 | 0.00 | 66 | 1011.6 |
| 20260507181043 | 69 | 20 | 0.0 | 0.0 | 0.00 | 0.00 | 0.00 | 64 | 1011.6 |
| 20260507180040 | 70 | 2 | 0.0 | 1.7 | 0.00 | 0.00 | 0.00 | 60 | 1011.6 |
| 20260507175541 | 71 | 255 | 0.9 | 1.7 | 0.00 | 0.00 | 0.00 | 56 | 1011.5 |
| 20260507174542 | 71 | 228 | 0.0 | 1.7 | 0.00 | 0.00 | 0.00 | 55 | 1011.4 |
| 20260507174041 | 71 | 225 | 0.0 | 1.7 | 0.00 | 0.00 | 0.00 | 57 | 1011.3 |
| 20260507173542 | 71 | 225 | 0.9 | 1.7 | 0.00 | 0.00 | 0.00 | 55 | 1011.2 |
| 20260507173041 | 71 | 220 | 0.9 | 1.7 | 0.00 | 0.00 | 0.00 | 54 | 1011.2 |
| 20260507172541 | 72 | 220 | 1.7 | 2.6 | 0.00 | 0.00 | 0.00 | 54 | 1011.2 |
| 20260507172044 | 72 | 220 | 1.7 | 2.6 | 0.00 | 0.00 | 0.00 | 54 | 1011.2 |
| 20260507171544 | 72 | 241 | 0.9 | 4.3 | 0.00 | 0.00 | 0.00 | 54 | 1011.2 |
| 20260507170541 | 72 | 237 | 3.5 | 4.3 | 0.00 | 0.00 | 0.00 | 53 | 1011.1 |
| 20260507170040 | 72 | 227 | 0.9 | 2.6 | 0.00 | 0.00 | 0.00 | 53 | 1011.0 |
| 20260507165540 | 73 | 225 | 2.6 | 2.6 | 0.00 | 0.00 | 0.00 | 52 | 1011.0 |
| 20260507165040 | 73 | 276 | 1.7 | 5.2 | 0.00 | 0.00 | 0.00 | 53 | 1011.1 |
| 20260507164041 | 73 | 240 | 2.6 | 5.2 | 0.00 | 0.00 | 0.00 | 52 | 1011.1 |
| 20260507163041 | 73 | 235 | 1.7 | 5.2 | 0.00 | 0.00 | 0.00 | 52 | 1011.0 |
| 20260507162540 | 74 | 236 | 2.6 | 4.3 | 0.00 | 0.00 | 0.00 | 53 | 1011.1 |
| 20260507161540 | 74 | 271 | 3.5 | 6.1 | 0.00 | 0.00 | 0.00 | 51 | 1011.1 |
| 20260507161041 | 74 | 248 | 2.6 | 5.2 | 0.00 | 0.00 | 0.00 | 53 | 1011.1 |
| 20260507160547 | 73 | 266 | 4.3 | 7.0 | 0.00 | 0.00 | 0.00 | 53 | 1011.2 |
| 20260507160040 | 73 | 246 | 2.6 | 4.3 | 0.00 | 0.00 | 0.00 | 54 | 1011.2 |
| 20260507155541 | 73 | 318 | 0.9 | 6.1 | 0.00 | 0.00 | 0.00 | 55 | 1011.2 |
| 20260507154540 | 73 | 314 | 0.9 | 5.2 | 0.00 | 0.00 | 0.00 | 55 | 1011.1 |
| 20260507154041 | 73 | 311 | 1.7 | 6.1 | 0.00 | 0.00 | 0.00 | 54 | 1011.1 |
| 20260507153541 | 73 | 293 | 0.9 | 1.7 | 0.00 | 0.00 | 0.00 | 54 | 1011.2 |
| 20260507153040 | 72 | 298 | 2.6 | 2.6 | 0.00 | 0.00 | 0.00 | 54 | 1011.2 |
| 20260507152541 | 72 | 27 | 0.0 | 0.9 | 0.00 | 0.00 | 0.00 | 54 | 1011.2 |
| 20260507152042 | 72 | 278 | 0.9 | 2.6 | 0.00 | 0.00 | 0.00 | 53 | 1011.2 |
| 20260507151540 | 72 | 291 | 1.7 | 2.6 | 0.00 | 0.00 | 0.00 | 54 | 1011.2 |
| 20260507150040 | 73 | 282 | 3.5 | 7.8 | 0.00 | 0.00 | 0.00 | 54 | 1011.2 |
| 20260507145548 | 72 | 111 | 0.9 | 2.6 | 0.00 | 0.00 | 0.00 | 52 | 1011.2 |
| 20260507145040 | 74 | 216 | 1.7 | 6.1 | 0.00 | 0.00 | 0.00 | 51 | 1011.2 |
| 20260507144540 | 74 | 186 | 3.5 | 7.0 | 0.00 | 0.00 | 0.00 | 51 | 1011.2 |
| 20260507143541 | 73 | 350 | 1.7 | 2.6 | 0.00 | 0.00 | 0.00 | 54 | 1011.2 |
| 20260507142540 | 73 | 260 | 2.6 | 6.1 | 0.00 | 0.00 | 0.00 | 52 | 1011.3 |
| 20260507142041 | 73 | 290 | 1.7 | 2.6 | 0.00 | 0.00 | 0.00 | 52 | 1011.3 |
| 20260507141540 | 74 | 317 | 2.6 | 6.1 | 0.00 | 0.00 | 0.00 | 49 | 1011.3 |
| 20260507141040 | 75 | 306 | 4.3 | 7.0 | 0.00 | 0.00 | 0.00 | 50 | 1011.3 |
| 20260507140540 | 75 | 260 | 6.1 | 7.8 | 0.00 | 0.00 | 0.00 | 51 | 1011.3 |
| 20260507140042 | 75 | 341 | 2.6 | 6.1 | 0.00 | 0.00 | 0.00 | 52 | 1011.3 |
| 20260507135540 | 74 | 290 | 2.6 | 6.1 | 0.00 | 0.00 | 0.00 | 50 | 1011.4 |
| 20260507135042 | 74 | 291 | 7.8 | 11.3 | 0.00 | 0.00 | 0.00 | 49 | 1011.4 |
| 20260507133540 | 74 | 287 | 4.3 | 7.8 | 0.00 | 0.00 | 0.00 | 50 | 1011.4 |
| 20260507132540 | 74 | 301 | 4.3 | 10.4 | 0.00 | 0.00 | 0.00 | 49 | 1011.5 |
| 20260507132040 | 74 | 320 | 6.1 | 10.4 | 0.00 | 0.00 | 0.00 | 48 | 1011.5 |
| 20260507131540 | 74 | 275 | 4.3 | 10.4 | 0.00 | 0.00 | 0.00 | 51 | 1011.5 |
| 20260507131041 | 74 | 277 | 4.3 | 8.7 | 0.00 | 0.00 | 0.00 | 52 | 1011.6 |
| 20260507130542 | 73 | 287 | 6.1 | 10.4 | 0.00 | 0.00 | 0.00 | 53 | 1011.6 |
| 20260507125540 | 73 | 291 | 5.2 | 7.8 | 0.00 | 0.00 | 0.00 | 52 | 1011.6 |
| 20260507125041 | 74 | 294 | 5.2 | 8.7 | 0.00 | 0.00 | 0.00 | 54 | 1011.6 |
| 20260507124540 | 74 | 310 | 5.2 | 8.7 | 0.00 | 0.00 | 0.00 | 52 | 1011.6 |
| 20260507124040 | 73 | 270 | 2.6 | 6.1 | 0.00 | 0.00 | 0.00 | 54 | 1011.7 |
| 20260507123539 | 74 | 292 | 4.3 | 11.3 | 0.00 | 0.00 | 0.00 | 51 | 1011.7 |
| 20260507123043 | 73 | 301 | 6.1 | 10.4 | 0.00 | 0.00 | 0.00 | 52 | 1011.6 |
| 20260507122540 | 73 | 279 | 5.2 | 8.7 | 0.00 | 0.00 | 0.00 | 52 | 1011.6 |
| 20260507122039 | 73 | 275 | 5.2 | 8.7 | 0.00 | 0.00 | 0.00 | 53 | 1011.7 |
| 20260507121539 | 73 | 293 | 7.8 | 10.4 | 0.00 | 0.00 | 0.00 | 53 | 1011.8 |
| 20260507121040 | 73 | 316 | 4.3 | 10.4 | 0.00 | 0.00 | 0.00 | 53 | 1011.7 |
| 20260507120039 | 73 | 268 | 3.5 | 8.7 | 0.00 | 0.00 | 0.00 | 57 | 1011.8 |
| 20260507115540 | 72 | 296 | 5.2 | 10.4 | 0.00 | 0.00 | 0.00 | 56 | 1011.9 |
| 20260507115041 | 72 | 299 | 6.1 | 11.3 | 0.00 | 0.00 | 0.00 | 53 | 1011.9 |
| 20260507114539 | 73 | 268 | 1.7 | 10.4 | 0.00 | 0.00 | 0.00 | 56 | 1011.9 |
| 20260507114039 | 72 | 311 | 2.6 | 6.1 | 0.00 | 0.00 | 0.00 | 56 | 1012.0 |
| 20260507113543 | 71 | 288 | 4.3 | 7.0 | 0.00 | 0.00 | 0.00 | 56 | 1012.0 |
| 20260507113040 | 72 | 262 | 2.6 | 6.1 | 0.00 | 0.00 | 0.00 | 56 | 1012.1 |
| 20260507112539 | 72 | 291 | 2.6 | 5.2 | 0.00 | 0.00 | 0.00 | 59 | 1012.2 |
| 20260507111540 | 71 | 255 | 0.9 | 4.3 | 0.00 | 0.00 | 0.00 | 57 | 1012.3 |
| 20260507111043 | 71 | 229 | 2.6 | 8.7 | 0.00 | 0.00 | 0.00 | 60 | 1012.3 |
| 20260507110539 | 71 | 238 | 4.3 | 8.7 | 0.00 | 0.00 | 0.00 | 61 | 1012.3 |
| 20260507110039 | 71 | 323 | 2.6 | 7.8 | 0.00 | 0.00 | 0.00 | 58 | 1012.4 |
| 20260507105040 | 69 | 252 | 1.7 | 5.2 | 0.00 | 0.00 | 0.00 | 63 | 1012.5 |
| 20260507104040 | 71 | 222 | 4.3 | 8.7 | 0.00 | 0.00 | 0.00 | 60 | 1012.5 |
| 20260507103539 | 70 | 244 | 4.3 | 5.2 | 0.00 | 0.00 | 0.00 | 63 | 1012.6 |
| 20260507103041 | 71 | 266 | 2.6 | 4.3 | 0.00 | 0.00 | 0.00 | 62 | 1012.6 |
| 20260507102540 | 70 | 236 | 4.3 | 7.8 | 0.00 | 0.00 | 0.00 | 60 | 1012.6 |
| 20260507102040 | 71 | 244 | 4.3 | 7.8 | 0.00 | 0.00 | 0.00 | 60 | 1012.6 |
| 20260507101040 | 70 | 221 | 3.5 | 7.0 | 0.00 | 0.00 | 0.00 | 63 | 1012.7 |
| 20260507100539 | 69 | 238 | 2.6 | 4.3 | 0.00 | 0.00 | 0.00 | 65 | 1012.7 |
| 20260507100039 | 70 | 273 | 2.6 | 6.1 | 0.00 | 0.00 | 0.00 | 66 | 1012.8 |
| 20260507095540 | 69 | 226 | 1.7 | 6.1 | 0.00 | 0.00 | 0.00 | 66 | 1012.8 |
| 20260507094539 | 70 | 270 | 2.6 | 7.8 | 0.00 | 0.00 | 0.00 | 66 | 1012.8 |
| 20260507094047 | 69 | 298 | 4.3 | 7.8 | 0.00 | 0.00 | 0.00 | 68 | 1012.8 |
| 20260507093540 | 68 | 295 | 4.3 | 7.0 | 0.00 | 0.00 | 0.00 | 65 | 1012.7 |
| 20260507093039 | 69 | 224 | 4.3 | 7.8 | 0.00 | 0.00 | 0.00 | 68 | 1012.7 |
| 20260507092540 | 68 | 281 | 3.5 | 7.8 | 0.00 | 0.00 | 0.00 | 70 | 1012.6 |
| 20260507092039 | 68 | 295 | 5.2 | 7.8 | 0.00 | 0.00 | 0.00 | 70 | 1012.6 |
| 20260507091546 | 67 | 285 | 5.2 | 10.4 | 0.00 | 0.00 | 0.00 | 71 | 1012.6 |
| 20260507091040 | 67 | 267 | 4.3 | 6.1 | 0.00 | 0.00 | 0.00 | 72 | 1012.7 |
| 20260507090039 | 67 | 274 | 2.6 | 7.0 | 0.00 | 0.00 | 0.00 | 75 | 1012.7 |
| 20260507085540 | 67 | 231 | 6.1 | 10.4 | 0.00 | 0.00 | 0.00 | 73 | 1012.7 |
| 20260507085039 | 66 | 247 | 4.3 | 7.0 | 0.00 | 0.00 | 0.00 | 74 | 1012.7 |
| 20260507084539 | 66 | 249 | 4.3 | 7.8 | 0.00 | 0.00 | 0.00 | 74 | 1012.7 |
| 20260507084039 | 65 | 279 | 2.6 | 10.4 | 0.00 | 0.00 | 0.00 | 75 | 1012.7 |
| 20260507083539 | 65 | 254 | 6.1 | 7.8 | 0.00 | 0.00 | 0.00 | 75 | 1012.7 |
| 20260507083039 | 65 | 248 | 4.3 | 7.0 | 0.00 | 0.00 | 0.00 | 77 | 1012.6 |